Year,Month,Day,Hour,Minute,Value (Times are PST for temperature in C)
2018,10,18,00,00,7.80
2018,10,18,00,01,7.80
2018,10,18,00,02,7.80
2018,10,18,00,03,7.80
2018,10,18,00,04,7.80
2018,10,18,00,05,7.80
2018,10,18,00,06,7.80
2018,10,18,00,07,7.80
2018,10,18,00,08,7.80
2018,10,18,00,09,7.70
2018,10,18,00,10,7.70
2018,10,18,00,11,7.70
2018,10,18,00,12,7.70
2018,10,18,00,13,7.70
2018,10,18,00,14,7.70
2018,10,18,00,15,7.70
2018,10,18,00,16,7.70
2018,10,18,00,17,7.70
2018,10,18,00,18,7.70
2018,10,18,00,19,7.70
2018,10,18,00,20,7.70
2018,10,18,00,21,7.60
2018,10,18,00,22,7.60
2018,10,18,00,23,7.60
2018,10,18,00,24,7.60
2018,10,18,00,25,7.60
2018,10,18,00,26,7.60
2018,10,18,00,27,7.60
2018,10,18,00,28,7.50
2018,10,18,00,29,7.50
2018,10,18,00,30,7.50
2018,10,18,00,31,7.50
2018,10,18,00,32,7.50
2018,10,18,00,33,7.40
2018,10,18,00,34,7.40
2018,10,18,00,35,7.40
2018,10,18,00,36,7.40
2018,10,18,00,37,7.40
2018,10,18,00,38,7.40
2018,10,18,00,39,7.40
2018,10,18,00,40,7.40
2018,10,18,00,41,7.30
2018,10,18,00,42,7.30
2018,10,18,00,43,7.30
2018,10,18,00,44,7.30
2018,10,18,00,45,7.30
2018,10,18,00,46,7.30
2018,10,18,00,47,7.30
2018,10,18,00,48,7.30
2018,10,18,00,49,7.30
2018,10,18,00,50,7.30
2018,10,18,00,51,7.30
2018,10,18,00,52,7.30
2018,10,18,00,53,7.30
2018,10,18,00,54,7.20
2018,10,18,00,55,7.20
2018,10,18,00,56,7.20
2018,10,18,00,57,7.20
2018,10,18,00,58,7.20
2018,10,18,00,59,7.20
2018,10,18,01,00,7.20
2018,10,18,01,01,7.20
2018,10,18,01,02,7.10
2018,10,18,01,03,7.10
2018,10,18,01,04,7.10
2018,10,18,01,05,7.10
2018,10,18,01,06,7.10
2018,10,18,01,07,7.10
2018,10,18,01,08,7.10
2018,10,18,01,09,7.00
2018,10,18,01,10,7.00
2018,10,18,01,11,7.00
2018,10,18,01,12,6.90
2018,10,18,01,13,6.90
2018,10,18,01,14,6.90
2018,10,18,01,15,6.90
2018,10,18,01,16,6.90
2018,10,18,01,17,6.90
2018,10,18,01,18,6.90
2018,10,18,01,19,6.90
2018,10,18,01,20,6.80
2018,10,18,01,21,6.80
2018,10,18,01,22,6.80
2018,10,18,01,23,6.80
2018,10,18,01,24,6.80
2018,10,18,01,25,6.80
2018,10,18,01,26,6.80
2018,10,18,01,27,6.80
2018,10,18,01,28,6.70
2018,10,18,01,29,6.70
2018,10,18,01,30,6.70
2018,10,18,01,31,6.70
2018,10,18,01,32,6.70
2018,10,18,01,33,6.70
2018,10,18,01,34,6.70
2018,10,18,01,35,6.70
2018,10,18,01,36,6.60
2018,10,18,01,37,6.60
2018,10,18,01,38,6.60
2018,10,18,01,39,6.60
2018,10,18,01,40,6.60
2018,10,18,01,41,6.60
2018,10,18,01,42,6.60
2018,10,18,01,43,6.60
2018,10,18,01,44,6.60
2018,10,18,01,45,6.50
2018,10,18,01,46,6.50
2018,10,18,01,47,6.50
2018,10,18,01,48,6.50
2018,10,18,01,49,6.50
2018,10,18,01,50,6.50
2018,10,18,01,51,6.40
2018,10,18,01,52,6.40
2018,10,18,01,53,6.40
2018,10,18,01,54,6.40
2018,10,18,01,55,6.40
2018,10,18,01,56,6.40
2018,10,18,01,57,6.40
2018,10,18,01,58,6.40
2018,10,18,01,59,6.40
2018,10,18,02,00,6.40
2018,10,18,02,01,6.40
2018,10,18,02,02,6.40
2018,10,18,02,03,6.50
2018,10,18,02,04,6.50
2018,10,18,02,05,6.50
2018,10,18,02,06,6.50
2018,10,18,02,07,6.50
2018,10,18,02,08,6.50
2018,10,18,02,09,6.60
2018,10,18,02,10,6.60
2018,10,18,02,11,6.60
2018,10,18,02,12,6.60
2018,10,18,02,13,6.60
2018,10,18,02,14,6.60
2018,10,18,02,15,6.60
2018,10,18,02,16,6.60
2018,10,18,02,17,6.60
2018,10,18,02,18,6.60
2018,10,18,02,19,6.60
2018,10,18,02,20,6.60
2018,10,18,02,21,6.60
2018,10,18,02,22,6.60
2018,10,18,02,23,6.60
2018,10,18,02,24,6.60
2018,10,18,02,25,6.60
2018,10,18,02,26,6.60
2018,10,18,02,27,6.60
2018,10,18,02,28,6.60
2018,10,18,02,29,6.60
2018,10,18,02,30,6.60
2018,10,18,02,31,6.60
2018,10,18,02,32,6.60
2018,10,18,02,33,6.50
2018,10,18,02,34,6.50
2018,10,18,02,35,6.50
2018,10,18,02,36,6.50
2018,10,18,02,37,6.40
2018,10,18,02,38,6.40
2018,10,18,02,39,6.40
2018,10,18,02,40,6.40
2018,10,18,02,41,6.40
2018,10,18,02,42,6.40
2018,10,18,02,43,6.40
2018,10,18,02,44,6.40
2018,10,18,02,45,6.30
2018,10,18,02,46,6.30
2018,10,18,02,47,6.30
2018,10,18,02,48,6.30
2018,10,18,02,49,6.30
2018,10,18,02,50,6.30
2018,10,18,02,51,6.30
2018,10,18,02,52,6.40
2018,10,18,02,53,6.30
2018,10,18,02,54,6.40
2018,10,18,02,55,6.40
2018,10,18,02,56,6.40
2018,10,18,02,57,6.40
2018,10,18,02,58,6.30
2018,10,18,02,59,6.30
2018,10,18,03,00,6.30
2018,10,18,03,01,6.30
2018,10,18,03,02,6.30
2018,10,18,03,03,6.30
2018,10,18,03,04,6.30
2018,10,18,03,05,6.30
2018,10,18,03,06,6.40
2018,10,18,03,07,6.40
2018,10,18,03,08,6.40
2018,10,18,03,09,6.40
2018,10,18,03,10,6.40
2018,10,18,03,11,6.40
2018,10,18,03,12,6.40
2018,10,18,03,13,6.50
2018,10,18,03,14,6.50
2018,10,18,03,15,6.50
2018,10,18,03,16,6.50
2018,10,18,03,17,6.50
2018,10,18,03,18,6.50
2018,10,18,03,19,6.40
2018,10,18,03,20,6.40
2018,10,18,03,21,6.40
2018,10,18,03,22,6.40
2018,10,18,03,23,6.40
2018,10,18,03,24,6.40
2018,10,18,03,25,6.40
2018,10,18,03,26,6.40
2018,10,18,03,27,6.40
2018,10,18,03,28,6.40
2018,10,18,03,29,6.40
2018,10,18,03,30,6.40
2018,10,18,03,31,6.40
2018,10,18,03,32,6.40
2018,10,18,03,33,6.40
2018,10,18,03,34,6.40
2018,10,18,03,35,6.30
2018,10,18,03,36,6.30
2018,10,18,03,37,6.30
2018,10,18,03,38,6.30
2018,10,18,03,39,6.30
2018,10,18,03,40,6.30
2018,10,18,03,41,6.30
2018,10,18,03,42,6.30
2018,10,18,03,43,6.30
2018,10,18,03,44,6.30
2018,10,18,03,45,6.30
2018,10,18,03,46,6.30
2018,10,18,03,47,6.30
2018,10,18,03,48,6.40
2018,10,18,03,49,6.40
2018,10,18,03,50,6.40
2018,10,18,03,51,6.40
2018,10,18,03,52,6.30
2018,10,18,03,53,6.30
2018,10,18,03,54,6.40
2018,10,18,03,55,6.40
2018,10,18,03,56,6.40
2018,10,18,03,57,6.40
2018,10,18,03,58,6.40
2018,10,18,03,59,6.40
2018,10,18,04,00,6.30
2018,10,18,04,01,6.30
2018,10,18,04,02,6.30
2018,10,18,04,03,6.30
2018,10,18,04,04,6.30
2018,10,18,04,05,6.30
2018,10,18,04,06,6.30
2018,10,18,04,07,6.30
2018,10,18,04,08,6.30
2018,10,18,04,09,6.30
2018,10,18,04,10,6.30
2018,10,18,04,11,6.20
2018,10,18,04,12,6.20
2018,10,18,04,13,6.20
2018,10,18,04,14,6.20
2018,10,18,04,15,6.20
2018,10,18,04,16,6.20
2018,10,18,04,17,6.20
2018,10,18,04,18,6.20
2018,10,18,04,19,6.20
2018,10,18,04,20,6.20
2018,10,18,04,21,6.20
2018,10,18,04,22,6.20
2018,10,18,04,23,6.20
2018,10,18,04,24,6.20
2018,10,18,04,25,6.20
2018,10,18,04,26,6.20
2018,10,18,04,27,6.10
2018,10,18,04,28,6.10
2018,10,18,04,29,6.10
2018,10,18,04,30,6.10
2018,10,18,04,31,6.10
2018,10,18,04,32,6.10
2018,10,18,04,33,6.10
2018,10,18,04,34,6.10
2018,10,18,04,35,6.10
2018,10,18,04,36,6.10
2018,10,18,04,37,6.10
2018,10,18,04,38,6.10
2018,10,18,04,39,6.10
2018,10,18,04,40,6.10
2018,10,18,04,41,6.10
2018,10,18,04,42,6.20
2018,10,18,04,43,6.10
2018,10,18,04,44,6.10
2018,10,18,04,45,6.20
2018,10,18,04,46,6.10
2018,10,18,04,47,6.10
2018,10,18,04,48,6.20
2018,10,18,04,49,6.10
2018,10,18,04,50,6.10
2018,10,18,04,51,6.10
2018,10,18,04,52,6.10
2018,10,18,04,53,6.10
2018,10,18,04,54,6.10
2018,10,18,04,55,6.10
2018,10,18,04,56,6.10
2018,10,18,04,57,6.10
2018,10,18,04,58,6.10
2018,10,18,04,59,6.00
2018,10,18,05,00,6.00
2018,10,18,05,01,6.00
2018,10,18,05,02,6.00
2018,10,18,05,03,6.00
2018,10,18,05,04,6.00
2018,10,18,05,05,6.00
2018,10,18,05,06,6.00
2018,10,18,05,07,6.00
2018,10,18,05,08,6.00
2018,10,18,05,09,6.00
2018,10,18,05,10,6.00
2018,10,18,05,11,6.00
2018,10,18,05,12,6.00
2018,10,18,05,13,6.00
2018,10,18,05,14,6.00
2018,10,18,05,15,6.00
2018,10,18,05,16,6.00
2018,10,18,05,17,6.00
2018,10,18,05,18,6.00
2018,10,18,05,19,6.00
2018,10,18,05,20,6.00
2018,10,18,05,21,6.00
2018,10,18,05,22,6.00
2018,10,18,05,23,6.00
2018,10,18,05,24,6.10
2018,10,18,05,25,6.10
2018,10,18,05,26,6.10
2018,10,18,05,27,6.20
2018,10,18,05,28,6.20
2018,10,18,05,29,6.20
2018,10,18,05,30,6.20
2018,10,18,05,31,6.30
2018,10,18,05,32,6.30
2018,10,18,05,33,6.30
2018,10,18,05,34,6.30
2018,10,18,05,35,6.30
2018,10,18,05,36,6.30
2018,10,18,05,37,6.30
2018,10,18,05,38,6.30
2018,10,18,05,39,6.30
2018,10,18,05,40,6.30
2018,10,18,05,41,6.30
2018,10,18,05,42,6.30
2018,10,18,05,43,6.30
2018,10,18,05,44,6.30
2018,10,18,05,45,6.30
2018,10,18,05,46,6.30
2018,10,18,05,47,6.30
2018,10,18,05,48,6.30
2018,10,18,05,49,6.30
2018,10,18,05,50,6.30
2018,10,18,05,51,6.30
2018,10,18,05,52,6.30
2018,10,18,05,53,6.30
2018,10,18,05,54,6.30
2018,10,18,05,55,6.30
2018,10,18,05,56,6.30
2018,10,18,05,57,6.30
2018,10,18,05,58,6.30
2018,10,18,05,59,6.30
2018,10,18,06,00,6.30
2018,10,18,06,01,6.20
2018,10,18,06,02,6.20
2018,10,18,06,03,6.20
2018,10,18,06,04,6.20
2018,10,18,06,05,6.20
2018,10,18,06,06,6.20
2018,10,18,06,07,6.30
2018,10,18,06,08,6.30
2018,10,18,06,09,6.30
2018,10,18,06,10,6.30
2018,10,18,06,11,6.30
2018,10,18,06,12,6.30
2018,10,18,06,13,6.30
2018,10,18,06,14,6.30
2018,10,18,06,15,6.30
2018,10,18,06,16,6.30
2018,10,18,06,17,6.30
2018,10,18,06,18,6.30
2018,10,18,06,19,6.30
2018,10,18,06,20,6.30
2018,10,18,06,21,6.30
2018,10,18,06,22,6.30
2018,10,18,06,23,6.40
2018,10,18,06,24,6.40
2018,10,18,06,25,6.40
2018,10,18,06,26,6.40
2018,10,18,06,27,6.40
2018,10,18,06,28,6.40
2018,10,18,06,29,6.40
2018,10,18,06,30,6.40
2018,10,18,06,31,6.40
2018,10,18,06,32,6.40
2018,10,18,06,33,6.40
2018,10,18,06,34,6.40
2018,10,18,06,35,6.40
2018,10,18,06,36,6.40
2018,10,18,06,37,6.40
2018,10,18,06,38,6.40
2018,10,18,06,39,6.40
2018,10,18,06,40,6.40
2018,10,18,06,41,6.40
2018,10,18,06,42,6.40
2018,10,18,06,43,6.40
2018,10,18,06,44,6.40
2018,10,18,06,45,6.40
2018,10,18,06,46,6.40
2018,10,18,06,47,6.40
2018,10,18,06,48,6.40
2018,10,18,06,49,6.40
2018,10,18,06,50,6.40
2018,10,18,06,51,6.40
2018,10,18,06,52,6.40
2018,10,18,06,53,6.40
2018,10,18,06,54,6.40
2018,10,18,06,55,6.40
2018,10,18,06,56,6.40
2018,10,18,06,57,6.30
2018,10,18,06,58,6.30
2018,10,18,06,59,6.30
2018,10,18,07,00,6.30
2018,10,18,07,01,6.30
2018,10,18,07,02,6.30
2018,10,18,07,03,6.30
2018,10,18,07,04,6.30
2018,10,18,07,05,6.30
2018,10,18,07,06,6.30
2018,10,18,07,07,6.30
2018,10,18,07,08,6.30
2018,10,18,07,09,6.30
2018,10,18,07,10,6.20
2018,10,18,07,11,6.20
2018,10,18,07,12,6.20
2018,10,18,07,13,6.20
2018,10,18,07,14,6.20
2018,10,18,07,15,6.20
2018,10,18,07,16,6.20
2018,10,18,07,17,6.20
2018,10,18,07,18,6.20
2018,10,18,07,19,6.20
2018,10,18,07,20,6.20
2018,10,18,07,21,6.10
2018,10,18,07,22,6.20
2018,10,18,07,23,6.20
2018,10,18,07,24,6.20
2018,10,18,07,25,6.20
2018,10,18,07,26,6.10
2018,10,18,07,27,6.10
2018,10,18,07,28,6.10
2018,10,18,07,29,6.10
2018,10,18,07,30,6.10
2018,10,18,07,31,6.20
2018,10,18,07,32,6.20
2018,10,18,07,33,6.20
2018,10,18,07,34,6.20
2018,10,18,07,35,6.20
2018,10,18,07,36,6.20
2018,10,18,07,37,6.20
2018,10,18,07,38,6.20
2018,10,18,07,39,6.10
2018,10,18,07,40,6.10
2018,10,18,07,41,6.10
2018,10,18,07,42,6.10
2018,10,18,07,43,6.10
2018,10,18,07,44,6.10
2018,10,18,07,45,6.20
2018,10,18,07,46,6.20
2018,10,18,07,47,6.20
2018,10,18,07,48,6.20
2018,10,18,07,49,6.20
2018,10,18,07,50,6.20
2018,10,18,07,51,6.20
2018,10,18,07,52,6.20
2018,10,18,07,53,6.10
2018,10,18,07,54,6.10
2018,10,18,07,55,6.10
2018,10,18,07,56,6.10
2018,10,18,07,57,6.10
2018,10,18,07,58,6.10
2018,10,18,07,59,6.10
2018,10,18,08,00,6.10
2018,10,18,08,01,6.10
2018,10,18,08,02,6.10
2018,10,18,08,03,6.10
2018,10,18,08,04,6.10
2018,10,18,08,05,6.10
2018,10,18,08,06,6.10
2018,10,18,08,07,6.00
2018,10,18,08,08,6.10
2018,10,18,08,09,6.00
2018,10,18,08,10,6.10
2018,10,18,08,11,6.10
2018,10,18,08,12,6.10
2018,10,18,08,13,6.10
2018,10,18,08,14,6.20
2018,10,18,08,15,6.20
2018,10,18,08,16,6.30
2018,10,18,08,17,6.30
2018,10,18,08,18,6.30
2018,10,18,08,19,6.30
2018,10,18,08,20,6.30
2018,10,18,08,21,6.30
2018,10,18,08,22,6.40
2018,10,18,08,23,6.40
2018,10,18,08,24,6.40
2018,10,18,08,25,6.50
2018,10,18,08,26,6.50
2018,10,18,08,27,6.60
2018,10,18,08,28,6.60
2018,10,18,08,29,6.60
2018,10,18,08,30,6.70
2018,10,18,08,31,6.70
2018,10,18,08,32,6.70
2018,10,18,08,33,6.70
2018,10,18,08,34,6.80
2018,10,18,08,35,6.80
2018,10,18,08,36,6.80
2018,10,18,08,37,6.80
2018,10,18,08,38,6.90
2018,10,18,08,39,6.90
2018,10,18,08,40,6.90
2018,10,18,08,41,7.00
2018,10,18,08,42,7.00
2018,10,18,08,43,7.10
2018,10,18,08,44,7.10
2018,10,18,08,45,7.10
2018,10,18,08,46,7.20
2018,10,18,08,47,7.20
2018,10,18,08,48,7.20
2018,10,18,08,49,7.30
2018,10,18,08,50,7.30
2018,10,18,08,51,7.30
2018,10,18,08,52,7.40
2018,10,18,08,53,7.40
2018,10,18,08,54,7.40
2018,10,18,08,55,7.50
2018,10,18,08,56,7.50
2018,10,18,08,57,7.60
2018,10,18,08,58,7.60
2018,10,18,08,59,7.70
2018,10,18,09,00,7.70
2018,10,18,09,01,7.80
2018,10,18,09,02,7.80
2018,10,18,09,03,7.90
2018,10,18,09,04,7.90
2018,10,18,09,05,8.00
2018,10,18,09,06,8.00
2018,10,18,09,07,8.10
2018,10,18,09,08,8.10
2018,10,18,09,09,8.20
2018,10,18,09,10,8.20
2018,10,18,09,11,8.30
2018,10,18,09,12,8.30
2018,10,18,09,13,8.30
2018,10,18,09,14,8.40
2018,10,18,09,15,8.40
2018,10,18,09,16,8.50
2018,10,18,09,17,8.50
2018,10,18,09,18,8.60
2018,10,18,09,19,8.60
2018,10,18,09,20,8.70
2018,10,18,09,21,8.70
2018,10,18,09,22,8.70
2018,10,18,09,23,8.80
2018,10,18,09,24,8.80
2018,10,18,09,25,8.80
2018,10,18,09,26,8.90
2018,10,18,09,27,8.90
2018,10,18,09,28,9.00
2018,10,18,09,29,9.00
2018,10,18,09,30,9.10
2018,10,18,09,31,9.10
2018,10,18,09,32,9.20
2018,10,18,09,33,9.20
2018,10,18,09,34,9.20
2018,10,18,09,35,9.30
2018,10,18,09,36,9.30
2018,10,18,09,37,9.40
2018,10,18,09,38,9.40
2018,10,18,09,39,9.40
2018,10,18,09,40,9.50
2018,10,18,09,41,9.60
2018,10,18,09,42,9.60
2018,10,18,09,43,9.60
2018,10,18,09,44,9.70
2018,10,18,09,45,9.70
2018,10,18,09,46,9.70
2018,10,18,09,47,9.80
2018,10,18,09,48,9.80
2018,10,18,09,49,9.90
2018,10,18,09,50,10.00
2018,10,18,09,51,10.00
2018,10,18,09,52,10.10
2018,10,18,09,53,10.10
2018,10,18,09,54,10.10
2018,10,18,09,55,10.20
2018,10,18,09,56,10.20
2018,10,18,09,57,10.20
2018,10,18,09,58,10.30
2018,10,18,09,59,10.30
2018,10,18,10,00,10.30
2018,10,18,10,01,10.30
2018,10,18,10,02,10.40
2018,10,18,10,03,10.40
2018,10,18,10,04,10.40
2018,10,18,10,05,10.50
2018,10,18,10,06,10.50
2018,10,18,10,07,10.60
2018,10,18,10,08,10.60
2018,10,18,10,09,10.60
2018,10,18,10,10,10.60
2018,10,18,10,11,10.70
2018,10,18,10,12,10.70
2018,10,18,10,13,10.80
2018,10,18,10,14,10.80
2018,10,18,10,15,10.90
2018,10,18,10,16,11.00
2018,10,18,10,17,11.10
2018,10,18,10,18,11.10
2018,10,18,10,19,11.20
2018,10,18,10,20,11.30
2018,10,18,10,21,11.40
2018,10,18,10,22,11.50
2018,10,18,10,23,11.60
2018,10,18,10,24,11.70
2018,10,18,10,25,11.80
2018,10,18,10,26,11.90
2018,10,18,10,27,12.00
2018,10,18,10,28,12.10
2018,10,18,10,29,12.20
2018,10,18,10,30,12.30
2018,10,18,10,31,12.30
2018,10,18,10,32,12.40
2018,10,18,10,33,12.50
2018,10,18,10,34,12.60
2018,10,18,10,35,12.70
2018,10,18,10,36,12.80
2018,10,18,10,37,13.00
2018,10,18,10,38,13.10
2018,10,18,10,39,13.20
2018,10,18,10,40,13.20
2018,10,18,10,41,13.30
2018,10,18,10,42,13.40
2018,10,18,10,43,13.40
2018,10,18,10,44,13.50
2018,10,18,10,45,13.60
2018,10,18,10,46,13.60
2018,10,18,10,47,13.70
2018,10,18,10,48,13.80
2018,10,18,10,49,13.80
2018,10,18,10,50,13.90
2018,10,18,10,51,14.00
2018,10,18,10,52,14.00
2018,10,18,10,53,14.10
2018,10,18,10,54,14.10
2018,10,18,10,55,14.20
2018,10,18,10,56,14.20
2018,10,18,10,57,14.30
2018,10,18,10,58,14.30
2018,10,18,10,59,14.40
2018,10,18,11,00,14.40
2018,10,18,11,01,14.40
2018,10,18,11,02,14.50
2018,10,18,11,03,14.50
2018,10,18,11,04,14.50
2018,10,18,11,05,14.60
2018,10,18,11,06,14.60
2018,10,18,11,07,14.60
2018,10,18,11,08,14.70
2018,10,18,11,09,14.70
2018,10,18,11,10,14.80
2018,10,18,11,11,14.80
2018,10,18,11,12,14.80
2018,10,18,11,13,14.90
2018,10,18,11,14,14.90
2018,10,18,11,15,15.00
2018,10,18,11,16,15.00
2018,10,18,11,17,15.00
2018,10,18,11,18,15.00
2018,10,18,11,19,15.10
2018,10,18,11,20,15.10
2018,10,18,11,21,15.20
2018,10,18,11,22,15.20
2018,10,18,11,23,15.20
2018,10,18,11,24,15.20
2018,10,18,11,25,15.20
2018,10,18,11,26,15.20
2018,10,18,11,27,15.20
2018,10,18,11,28,15.20
2018,10,18,11,29,15.20
2018,10,18,11,30,15.20
2018,10,18,11,31,15.20
2018,10,18,11,32,15.20
2018,10,18,11,33,15.20
2018,10,18,11,34,15.20
2018,10,18,11,35,15.20
2018,10,18,11,36,15.20
2018,10,18,11,37,15.20
2018,10,18,11,38,15.20
2018,10,18,11,39,15.20
2018,10,18,11,40,15.30
2018,10,18,11,41,15.30
2018,10,18,11,42,15.30
2018,10,18,11,43,15.30
2018,10,18,11,44,15.30
2018,10,18,11,45,15.40
2018,10,18,11,46,15.40
2018,10,18,11,47,15.50
2018,10,18,11,48,15.50
2018,10,18,11,49,15.50
2018,10,18,11,50,15.40
2018,10,18,11,51,15.40
2018,10,18,11,52,15.30
2018,10,18,11,53,15.20
2018,10,18,11,54,15.20
2018,10,18,11,55,15.10
2018,10,18,11,56,15.10
2018,10,18,11,57,15.00
2018,10,18,11,58,15.00
2018,10,18,11,59,15.00
2018,10,18,12,00,15.00
2018,10,18,12,01,15.00
2018,10,18,12,02,15.00
2018,10,18,12,03,15.00
2018,10,18,12,04,15.00
2018,10,18,12,05,14.90
2018,10,18,12,06,14.90
2018,10,18,12,07,14.90
2018,10,18,12,08,14.90
2018,10,18,12,09,14.90
2018,10,18,12,10,14.80
2018,10,18,12,11,14.80
2018,10,18,12,12,14.80
2018,10,18,12,13,14.80
2018,10,18,12,14,14.70
2018,10,18,12,15,14.70
2018,10,18,12,16,14.70
2018,10,18,12,17,14.70
2018,10,18,12,18,14.70
2018,10,18,12,19,14.70
2018,10,18,12,20,14.70
2018,10,18,12,21,14.70
2018,10,18,12,22,14.70
2018,10,18,12,23,14.80
2018,10,18,12,24,14.80
2018,10,18,12,25,14.80
2018,10,18,12,26,14.80
2018,10,18,12,27,14.80
2018,10,18,12,28,14.80
2018,10,18,12,29,14.80
2018,10,18,12,30,14.80
2018,10,18,12,31,14.80
2018,10,18,12,32,14.70
2018,10,18,12,33,14.70
2018,10,18,12,34,14.70
2018,10,18,12,35,14.70
2018,10,18,12,36,14.70
2018,10,18,12,37,14.70
2018,10,18,12,38,14.70
2018,10,18,12,39,14.70
2018,10,18,12,40,14.70
2018,10,18,12,41,14.70
2018,10,18,12,42,14.70
2018,10,18,12,43,14.70
2018,10,18,12,44,14.60
2018,10,18,12,45,14.60
2018,10,18,12,46,14.60
2018,10,18,12,47,14.70
2018,10,18,12,48,14.70
2018,10,18,12,49,14.70
2018,10,18,12,50,14.70
2018,10,18,12,51,14.80
2018,10,18,12,52,14.80
2018,10,18,12,53,14.80
2018,10,18,12,54,14.80
2018,10,18,12,55,14.80
2018,10,18,12,56,14.80
2018,10,18,12,57,14.80
2018,10,18,12,58,14.80
2018,10,18,12,59,14.80
2018,10,18,13,00,14.80
2018,10,18,13,01,14.80
2018,10,18,13,02,14.80
2018,10,18,13,03,14.90
2018,10,18,13,04,14.90
2018,10,18,13,05,15.00
2018,10,18,13,06,15.00
2018,10,18,13,07,15.10
2018,10,18,13,08,15.10
2018,10,18,13,09,15.20
2018,10,18,13,10,15.20
2018,10,18,13,11,15.30
2018,10,18,13,12,15.30
2018,10,18,13,13,15.40
2018,10,18,13,14,15.40
2018,10,18,13,15,15.40
2018,10,18,13,16,15.40
2018,10,18,13,17,15.40
2018,10,18,13,18,15.40
2018,10,18,13,19,15.40
2018,10,18,13,20,15.50
2018,10,18,13,21,15.50
2018,10,18,13,22,15.50
2018,10,18,13,23,15.50
2018,10,18,13,24,15.50
2018,10,18,13,25,15.60
2018,10,18,13,26,15.50
2018,10,18,13,27,15.40
2018,10,18,13,28,15.40
2018,10,18,13,29,15.30
2018,10,18,13,30,15.30
2018,10,18,13,31,15.30
2018,10,18,13,32,15.30
2018,10,18,13,33,15.20
2018,10,18,13,34,15.20
2018,10,18,13,35,15.10
2018,10,18,13,36,15.10
2018,10,18,13,37,15.10
2018,10,18,13,38,15.10
2018,10,18,13,39,15.10
2018,10,18,13,40,15.10
2018,10,18,13,41,15.10
2018,10,18,13,42,15.20
2018,10,18,13,43,15.20
2018,10,18,13,44,15.20
2018,10,18,13,45,15.20
2018,10,18,13,46,15.20
2018,10,18,13,47,15.20
2018,10,18,13,48,15.20
2018,10,18,13,49,15.20
2018,10,18,13,50,15.20
2018,10,18,13,51,15.30
2018,10,18,13,52,15.30
2018,10,18,13,53,15.30
2018,10,18,13,54,15.30
2018,10,18,13,55,15.40
2018,10,18,13,56,15.40
2018,10,18,13,57,15.40
2018,10,18,13,58,15.40
2018,10,18,13,59,15.40
2018,10,18,14,00,15.40
2018,10,18,14,01,15.40
2018,10,18,14,02,15.40
2018,10,18,14,03,15.40
2018,10,18,14,04,15.40
2018,10,18,14,05,15.40
2018,10,18,14,06,15.40
2018,10,18,14,07,15.40
2018,10,18,14,08,15.40
2018,10,18,14,09,15.40
2018,10,18,14,10,15.40
2018,10,18,14,11,15.40
2018,10,18,14,12,15.40
2018,10,18,14,13,15.30
2018,10,18,14,14,15.30
2018,10,18,14,15,15.30
2018,10,18,14,16,15.30
2018,10,18,14,17,15.30
2018,10,18,14,18,15.30
2018,10,18,14,19,15.30
2018,10,18,14,20,15.20
2018,10,18,14,21,15.20
2018,10,18,14,22,15.10
2018,10,18,14,23,15.10
2018,10,18,14,24,15.00
2018,10,18,14,25,15.00
2018,10,18,14,26,14.90
2018,10,18,14,27,14.90
2018,10,18,14,28,14.90
2018,10,18,14,29,14.80
2018,10,18,14,30,14.80
2018,10,18,14,31,14.80
2018,10,18,14,32,14.80
2018,10,18,14,33,14.80
2018,10,18,14,34,14.90
2018,10,18,14,35,14.90
2018,10,18,14,36,14.90
2018,10,18,14,37,14.90
2018,10,18,14,38,14.90
2018,10,18,14,39,14.90
2018,10,18,14,40,14.90
2018,10,18,14,41,14.90
2018,10,18,14,42,14.90
2018,10,18,14,43,14.90
2018,10,18,14,44,15.00
2018,10,18,14,45,15.00
2018,10,18,14,46,15.00
2018,10,18,14,47,15.00
2018,10,18,14,48,15.00
2018,10,18,14,49,15.00
2018,10,18,14,50,15.00
2018,10,18,14,51,15.00
2018,10,18,14,52,15.00
2018,10,18,14,53,15.00
2018,10,18,14,54,15.00
2018,10,18,14,55,15.00
2018,10,18,14,56,15.00
2018,10,18,14,57,15.00
2018,10,18,14,58,15.00
2018,10,18,14,59,15.00
2018,10,18,15,00,15.00
2018,10,18,15,01,14.90
2018,10,18,15,02,14.90
2018,10,18,15,03,14.90
2018,10,18,15,04,14.90
2018,10,18,15,05,14.80
2018,10,18,15,06,14.80
2018,10,18,15,07,14.80
2018,10,18,15,08,14.80
2018,10,18,15,09,14.80
2018,10,18,15,10,14.80
2018,10,18,15,11,14.80
2018,10,18,15,12,14.70
2018,10,18,15,13,14.70
2018,10,18,15,14,14.70
2018,10,18,15,15,14.70
2018,10,18,15,16,14.70
2018,10,18,15,17,14.70
2018,10,18,15,18,14.80
2018,10,18,15,19,14.80
2018,10,18,15,20,14.80
2018,10,18,15,21,14.80
2018,10,18,15,22,14.80
2018,10,18,15,23,14.90
2018,10,18,15,24,14.90
2018,10,18,15,25,14.90
2018,10,18,15,26,14.90
2018,10,18,15,27,14.90
2018,10,18,15,28,14.90
2018,10,18,15,29,14.90
2018,10,18,15,30,14.90
2018,10,18,15,31,14.90
2018,10,18,15,32,14.90
2018,10,18,15,33,14.90
2018,10,18,15,34,14.90
2018,10,18,15,35,14.80
2018,10,18,15,36,14.80
2018,10,18,15,37,14.80
2018,10,18,15,38,14.80
2018,10,18,15,39,14.70
2018,10,18,15,40,14.70
2018,10,18,15,41,14.70
2018,10,18,15,42,14.70
2018,10,18,15,43,14.70
2018,10,18,15,44,14.70
2018,10,18,15,45,14.70
2018,10,18,15,46,14.70
2018,10,18,15,47,14.60
2018,10,18,15,48,14.60
2018,10,18,15,49,14.60
2018,10,18,15,50,14.60
2018,10,18,15,51,14.50
2018,10,18,15,52,14.50
2018,10,18,15,53,14.50
2018,10,18,15,54,14.40
2018,10,18,15,55,14.40
2018,10,18,15,56,14.40
2018,10,18,15,57,14.40
2018,10,18,15,58,14.50
2018,10,18,15,59,14.50
2018,10,18,16,00,14.50
2018,10,18,16,01,14.50
2018,10,18,16,02,14.60
2018,10,18,16,03,14.60
2018,10,18,16,04,14.60
2018,10,18,16,05,14.60
2018,10,18,16,06,14.70
2018,10,18,16,07,14.70
2018,10,18,16,08,14.70
2018,10,18,16,09,14.70
2018,10,18,16,10,14.70
2018,10,18,16,11,14.70
2018,10,18,16,12,14.70
2018,10,18,16,13,14.70
2018,10,18,16,14,14.70
2018,10,18,16,15,14.70
2018,10,18,16,16,14.70
2018,10,18,16,17,14.70
2018,10,18,16,18,14.70
2018,10,18,16,19,14.70
2018,10,18,16,20,14.70
2018,10,18,16,21,14.70
2018,10,18,16,22,14.60
2018,10,18,16,23,14.60
2018,10,18,16,24,14.60
2018,10,18,16,25,14.60
2018,10,18,16,26,14.50
2018,10,18,16,27,14.50
2018,10,18,16,28,14.50
2018,10,18,16,29,14.50
2018,10,18,16,30,14.40
2018,10,18,16,31,14.40
2018,10,18,16,32,14.40
2018,10,18,16,33,14.40
2018,10,18,16,34,14.40
2018,10,18,16,35,14.40
2018,10,18,16,36,14.40
2018,10,18,16,37,14.50
2018,10,18,16,38,14.50
2018,10,18,16,39,14.50
2018,10,18,16,40,14.50
2018,10,18,16,41,14.50
2018,10,18,16,42,14.50
2018,10,18,16,43,14.50
2018,10,18,16,44,14.50
2018,10,18,16,45,14.50
2018,10,18,16,46,14.50
2018,10,18,16,47,14.50
2018,10,18,16,48,14.60
2018,10,18,16,49,14.60
2018,10,18,16,50,14.60
2018,10,18,16,51,14.60
2018,10,18,16,52,14.60
2018,10,18,16,53,14.70
2018,10,18,16,54,14.70
2018,10,18,16,55,14.70
2018,10,18,16,56,14.70
2018,10,18,16,57,14.70
2018,10,18,16,58,14.70
2018,10,18,16,59,14.70
2018,10,18,17,00,14.70
2018,10,18,17,01,14.70
2018,10,18,17,02,14.70
2018,10,18,17,03,14.70
2018,10,18,17,04,14.60
2018,10,18,17,05,14.60
2018,10,18,17,06,14.50
2018,10,18,17,07,14.50
2018,10,18,17,08,14.40
2018,10,18,17,09,14.40
2018,10,18,17,10,14.30
2018,10,18,17,11,14.30
2018,10,18,17,12,14.30
2018,10,18,17,13,14.30
2018,10,18,17,14,14.20
2018,10,18,17,15,14.20
2018,10,18,17,16,14.20
2018,10,18,17,17,14.20
2018,10,18,17,18,14.20
2018,10,18,17,19,14.20
2018,10,18,17,20,14.20
2018,10,18,17,21,14.20
2018,10,18,17,22,14.20
2018,10,18,17,23,14.10
2018,10,18,17,24,14.10
2018,10,18,17,25,14.00
2018,10,18,17,26,14.00
2018,10,18,17,27,13.90
2018,10,18,17,28,13.90
2018,10,18,17,29,13.90
2018,10,18,17,30,13.80
2018,10,18,17,31,13.80
2018,10,18,17,32,13.80
2018,10,18,17,33,13.70
2018,10,18,17,34,13.70
2018,10,18,17,35,13.70
2018,10,18,17,36,13.70
2018,10,18,17,37,13.70
2018,10,18,17,38,13.60
2018,10,18,17,39,13.60
2018,10,18,17,40,13.60
2018,10,18,17,41,13.60
2018,10,18,17,42,13.60
2018,10,18,17,43,13.50
2018,10,18,17,44,13.50
2018,10,18,17,45,13.50